Weather History for Hayward, WI

Change the Weather History Date:

Friday, October 11, 2013

  Actual Average Record
Temperature  
Mean Temperature 63 °F -  
Max Temperature 73 °F 59 °F 77 °F (2008)
Min Temperature 53 °F 29 °F 19 °F (2000)
Degree Days  
Heating Degree Days 2    
Growing Degree Days 13 (Base 50)    
Moisture  
Dew Point 50 °F    
Average Humidity 63    
Maximum Humidity 83    
Minimum Humidity 46    
Precipitation  
Precipitation 0.00 in - - ()
Sea Level Pressure  
Sea Level Pressure 29.87 in    
Wind  
Wind Speed 11 mph (SSE)    
Max Wind Speed 25 mph    
Max Gust Speed 36 mph    
Visibility 10 miles    
Events Rain    
Averages and records for this station are not official NWS values.
T = Trace of Precipitation, MM = Missing Value Source: NWS Daily Summary

Daily Weather History Graph

Daily Weather History Graph

Search for Another Location

Airport:

Trip Planner

Search our weather history database for the weather conditions in past years. The results will help you decide how hot, cold, wet, or windy it might be!

Date:

Astronomy

Oct. 11, 2013 Rise Set
Actual Time 7:17 AM CDT 6:26 PM CDT
Civil Twilight 6:47 AM CDT 6:56 PM CDT
Nautical Twilight 6:13 AM CDT 7:30 PM CDT
Astronomical Twilight 5:38 AM CDT 8:05 PM CDT
Moon 2:10 PM CDT (10/11) No Moon Set
Length of Visible Light 12h 08m
Length of Day
11h 08m
Waxing Crescent, 47% of the Moon is Illuminated
Oct 11
Waxing Crescent
Oct 11
First Quarter
Oct 18
Full
Oct 26
Last Quarter
Nov 3
New

Hourly Weather History & Observations

Time (CDT) Temp. Dew Point Humidity Pressure Visibility Wind Dir Wind Speed Gust Speed Precip Events Conditions
12:53 AM 57.0 °F 46.0 °F 67% 29.98 in 10.0 mi SE 6.9 mph - N/A   Clear
1:53 AM 57.0 °F 46.0 °F 67% 29.97 in 10.0 mi SSE 8.1 mph - N/A   Clear
2:53 AM 55.9 °F 46.0 °F 69% 29.98 in 10.0 mi SE 9.2 mph - N/A   Clear
3:53 AM 55.9 °F 46.0 °F 69% 29.98 in 10.0 mi SSE 9.2 mph - N/A   Clear
4:53 AM 55.0 °F 46.9 °F 74% 29.99 in 10.0 mi SE 6.9 mph - N/A   Clear
5:53 AM 54.0 °F 46.9 °F 77% 29.98 in 10.0 mi SE 8.1 mph - N/A   Clear
6:53 AM 54.0 °F 48.0 °F 80% 29.99 in 10.0 mi SE 6.9 mph - N/A   Clear
7:53 AM 53.1 °F 48.0 °F 83% 29.98 in 10.0 mi SE 8.1 mph - N/A   Clear
8:53 AM 55.9 °F 50.0 °F 80% 29.98 in 10.0 mi SE 9.2 mph - N/A   Clear
9:53 AM 60.1 °F 51.1 °F 72% 29.96 in 10.0 mi SSE 11.5 mph - N/A   Clear
10:53 AM 64.0 °F 53.1 °F 67% 29.94 in 10.0 mi SSE 8.1 mph - N/A   Clear
11:53 AM 69.1 °F 54.0 °F 58% 29.90 in 10.0 mi SSE 11.5 mph 20.7 mph N/A   Clear
12:53 PM 72.0 °F 53.1 °F 51% 29.86 in 10.0 mi SSE 13.8 mph 25.3 mph N/A   Partly Cloudy
1:53 PM 73.0 °F 52.0 °F 48% 29.82 in 10.0 mi SSE 20.7 mph 31.1 mph N/A   Clear
2:53 PM 73.0 °F 51.1 °F 46% 29.77 in 10.0 mi SE 25.3 mph 35.7 mph N/A   Clear
3:53 PM 72.0 °F 51.1 °F 48% 29.77 in 10.0 mi SSE 16.1 mph 29.9 mph N/A   Clear
4:53 PM 71.1 °F 50.0 °F 47% 29.76 in 10.0 mi SSE 21.9 mph 33.4 mph N/A   Clear
5:53 PM 70.0 °F 52.0 °F 53% 29.77 in 10.0 mi SSE 17.3 mph 24.2 mph N/A   Clear
6:53 PM 69.1 °F 52.0 °F 54% 29.76 in 10.0 mi SSE 15.0 mph 28.8 mph N/A   Partly Cloudy
7:53 PM 68.0 °F 53.1 °F 59% 29.76 in 10.0 mi SE 18.4 mph 31.1 mph N/A   Overcast
8:53 PM 68.0 °F 54.0 °F 61% 29.75 in 10.0 mi SSE 15.0 mph 26.5 mph 0.00 in Rain Light Rain
9:53 PM 68.0 °F 54.0 °F 61% 29.73 in 10.0 mi SSE 18.4 mph 27.6 mph 0.00 in   Mostly Cloudy
10:53 PM 66.9 °F 53.1 °F 61% 29.72 in 10.0 mi SSE 16.1 mph 26.5 mph N/A   Mostly Cloudy
11:53 PM 66.0 °F 53.1 °F 63% 29.72 in 10.0 mi SSE 12.7 mph 27.6 mph N/A   Partly Cloudy